Location: Clanezzo
(45.7500°N, 9.6000°E)
Time: 12:49:23
(UTC+00:00)

BREEZE-M DEB (TANK) - Pass Details

Date: 12 May 2021
Orbit: 276 x 16788 km, 49.5° (Epoch: 19 June)

Event Time Altitude Azimuth Distance (km) Brightness Sun altitude
Rises 21:27:43 0° 292° (WNW) 1,944 5.9 -21.2°
Reaches altitude 10° 21:29:16 10° 294° (WNW) 1,116 4.6 -21.3°
Enters shadow 21:30:04 22° 296° (WNW) 712 3.5 -21.4°
